Temperature
19 19 19 19 19 19 19 19 19 19 19 19 19 19 19 19 19 19 19 19 19 19 19 19 19 19 19 19 19 19 18 18 18 17 17 17 17 17 17 17 16 16 16
19 19 19 19 19 19 19 19 19 19 19 19 19 19 19 19 19 19 19 19 19 19 19 19 19 19 19 19 19 19 19 18 18 18 17 17 17 17 17 17 16 16 16
19 19 19 19 19 19 19 19 19 19 19 19 19 19 19 19 19 19 19 19 19 19 19 19 19 19 19 19 19 19 19 19 18 18 18 18 17 17 17 17 17 16 16
20 19 19 19 19 19 19 19 19 19 19 19 19 19 19 19 19 19 19 19 19 19 19 19 19 19 19 19 19 19 19 19 19 18 18 18 18 18 18 18 17 17 16
20 19 19 19 19 19 19 19 19 19 19 19 19 19 19 19 19 19 19 19 19 19 19 19 19 19 19 19 19 19 19 19 19 19 18 18 18 18 18 18 18 17 17
20 19 19 19 19 19 19 19 19 19 19 19 19 19 19 19 19 19 20 20 20 20 20 19 19 19 19 19 19 19 19 19 19 19 18 18 18 18 18 18 18 18 17
20 20 19 19 19 19 19 19 19 19 19 19 18 18 19 19 20 20 20 20 20 20 20 20 19 19 19 19 19 19 19 19 19 19 19 18 18 18 18 18 18 17 17
19 19 19 19 19 19 19 19 19 19 18 18 18 17 18 19 20 21 21 20 20 20 20 19 20 19 19 19 19 19 18 18 18 19 19 18 18 18 18 18 17 17 17
19 19 19 19 19 18 18 18 18 18 18 18 17 17 17 18 19 20 20 20 20 20 19 19 19 19 19 18 18 18 18 18 18 18 18 18 18 18 18 17 17 17 17
19 18 18 18 18 18 18 18 17 17 16 17 17 17 17 17 16 18 19 19 19 19 19 19 18 18 19 18 18 18 18 18 18 18 18 18 18 17 17 17 17 17 16
18 18 18 18 18 18 17 17 16 16 16 16 16 16 16 16 16 16 17 18 18 18 18 18 18 18 18 18 18 17 17 17 18 18 17 17 17 17 17 17 17 17 16
17 17 17 17 17 17 16 16 16 15 15 15 15 15 15 16 16 16 16 17 17 17 17 17 17 17 17 17 17 17 17 17 17 17 17 17 17 17 17 17 17 17 16
16 16 16 16 16 16 15 15 15 15 15 14 14 14 15 15 16 16 16 16 16 17 17 17 17 17 16 16 16 16 16 16 17 17 17 17 17 17 16 16 16 16 16
16 15 15 15 15 15 15 15 15 15 15 15 14 15 15 15 15 15 16 16 16 16 17 17 16 16 16 16 16 16 16 16 16 16 16 16 16 16 16 16 16 16 16
15 15 15 15 15 15 15 15 14 14 14 14 14 15 15 15 15 15 15 15 15 15 16 16 16 16 16 15 15 15 15 15 15 15 16 16 16 15 15 15 15 16 16
15 15 14 14 14 14 14 14 14 14 14 14 14 14 15 15 15 15 15 15 15 15 15 15 15 15 15 15 15 15 15 15 15 15 15 15 15 15 15 15 15 15 15
14 14 14 14 14 14 14 14 14 14 14 14 14 14 14 14 14 14 14 14 14 15 14 14 14 14 14 14 14 14 15 15 15 15 15 15 14 14 14 14 14 14 15
13 13 13 13 13 13 13 14 14 13 13 13 14 14 14 14 14 14 14 14 14 14 14 14 14 14 14 14 14 14 14 14 14 14 14 14 14 13 13 13 14 14 14
12 12 12 12 13 13 13 13 13 13 13 13 13 13 13 13 13 13 13 13 13 14 14 14 13 13 13 13 13 13 13 14 14 13 13 13 13 13 13 13 13 13 14
11 11 12 12 12 12 12 12 13 13 12 12 12 13 13 13 13 13 13 13 13 13 13 13 13 13 13 13 13 13 13 13 13 13 12 12 12 12 12 12 13 13 13
11 11 11 11 12 12 12 12 12 12 12 12 12 12 12 12 12 13 13 13 13 13 13 13 13 12 12 12 12 12 12 12 13 12 12 12 12 12 12 12 12 12 13
11 11 11 11 12 12 12 12 12 12 12 12 12 12 12 12 12 12 12 12 13 13 12 12 12 12 12 12 12 12 12 12 12 12 12 12 11 12 12 12 12 12 12
11 11 11 12 12 12 12 11 11 11 11 12 12 12 12 11 12 12 12 12 12 12 12 12 12 11 11 12 12 12 12 12 12 12 12 11 11 11 11 11 11 11 12
11 11 12 12 12 11 11 11 11 11 11 11 11 11 11 11 11 11 11 11 11 11 11 12 11 11 11 11 11 12 12 12 12 11 11 11 11 11 11 11 11 11 11
11 11 12 12 12 12 11 11 11 11 11 11 11 11 11 11 11 11 11 11 11 11 11 11 11 11 11 11 11 11 11 11 11 11 11 11 11 11 11 11 11 11 11
11 11 12 12 12 12 11 11 11 11 11 11 11 11 11 11 11 11 11 11 11 11 11 11 11 11 11 11 11 10 10 10 10 10 10 10 10 10 10 11 10 10 10
Wind_Speed
9 8 5 5 6 7 7 7 6 7 7 7 8 8 8 9 10 11 9 19 22 21 21 20 20 20 20 20 21 21 21 20 20 20 21 22 22 22 22 22 22 21 20
7 6 6 5 5 7 6 4 6 6 6 7 8 7 7 8 8 10 11 15 22 23 23 23 23 22 21 21 21 21 21 20 20 20 20 20 21 21 21 21 21 21 21
7 6 6 6 5 7 7 4 4 4 6 7 8 9 8 7 8 8 11 11 14 22 25 25 25 24 23 22 22 21 21 20 20 20 20 20 20 20 20 20 20 21 21
10 6 6 6 5 5 3 4 5 5 6 5 6 6 6 6 8 8 9 11 13 15 20 26 26 25 24 24 23 22 21 21 21 21 21 21 20 20 19 19 19 20 21
12 7 7 6 4 4 4 5 5 4 5 5 6 7 7 8 9 11 10 10 12 14 13 20 28 27 26 25 24 23 22 22 22 22 21 21 21 20 20 19 19 19 20
8 7 7 8 7 5 5 5 6 5 5 5 8 9 7 8 9 10 11 10 8 11 14 13 17 22 26 26 25 24 24 23 23 23 22 22 21 21 21 20 20 19 19
7 7 7 6 7 7 7 7 6 6 6 5 5 7 9 11 12 12 11 9 9 7 8 8 12 15 17 25 26 25 25 24 23 23 23 23 22 22 22 21 21 20 20
6 8 8 7 7 7 9 8 7 5 5 5 4 5 5 6 9 11 7 7 8 6 6 6 7 11 12 13 19 25 25 25 24 23 23 23 23 23 23 22 22 22 21
7 8 9 8 8 9 9 9 8 9 7 6 5 4 4 3 4 6 4 4 5 4 3 3 4 5 8 9 12 20 25 25 24 24 23 23 23 23 24 23 23 22 22
8 8 9 9 8 8 8 9 9 7 7 6 3 4 6 5 4 5 4 3 4 3 3 4 4 3 4 6 7 11 19 21 21 21 21 22 23 23 23 23 23 23 23
7 7 7 6 6 6 6 6 5 5 4 4 3 3 5 6 8 6 5 4 3 3 3 4 3 3 2 2 2 1 12 17 17 17 16 16 18 20 22 22 23 23 23
6 6 5 5 5 4 4 4 3 3 3 3 3 3 4 4 4 5 4 4 4 3 3 2 1 2 2 3 6 9 2 5 8 10 11 12 12 13 16 18 19 20 21
6 6 6 5 4 4 4 4 4 4 4 4 4 4 5 4 4 3 3 3 3 3 1 0 1 1 2 5 6 6 1 2 4 7 9 9 10 10 10 11 13 15 16
5 5 6 6 6 5 5 5 4 4 4 4 5 4 3 3 3 2 1 2 3 2 0 0 1 3 3 3 4 3 1 4 5 6 6 6 7 7 7 8 10 12 13
5 5 5 5 5 4 4 4 3 4 4 4 3 3 3 2 2 1 1 1 2 3 2 1 2 2 2 2 2 3 2 3 6 6 6 6 5 5 6 8 10 12 14
3 2 4 4 4 4 3 3 3 3 3 3 3 2 1 1 1 2 1 1 1 1 2 3 3 4 4 4 3 4 4 4 7 7 7 6 5 5 6 8 10 12 15
4 3 1 2 3 3 4 3 2 3 3 2 1 3 4 4 4 4 4 3 3 2 2 2 3 4 4 5 5 4 4 3 4 8 7 6 4 5 7 9 11 13 15
6 6 4 2 1 1 2 2 2 4 4 5 5 6 7 6 6 5 4 4 3 3 2 3 4 4 4 5 5 4 4 4 2 4 6 4 4 5 7 9 11 13 15
6 6 5 3 1 1 2 4 6 6 7 8 8 9 9 8 7 5 5 6 5 5 3 3 3 3 3 4 5 5 6 5 4 2 2 3 4 5 7 9 10 12 14
5 5 4 2 2 4 5 7 8 9 9 10 10 10 9 8 7 7 7 7 6 5 4 4 4 5 5 6 6 5 4 4 4 5 4 3 4 5 6 7 9 11 13
3 2 1 2 4 6 7 7 8 10 9 9 9 9 9 9 10 8 8 7 8 7 7 6 7 6 6 7 7 6 5 4 2 3 3 3 3 3 3 5 7 10 11
0 0 2 5 8 8 11 12 10 8 8 8 7 6 8 9 8 9 10 11 11 9 8 7 7 6 7 6 6 7 5 5 3 3 3 3 3 4 4 4 7 8 9
3 3 5 8 8 8 13 13 11 8 9 8 9 8 9 11 10 6 3 6 9 12 10 7 6 5 5 6 7 8 7 5 2 4 3 3 2 3 4 5 8 7 7
3 5 6 8 7 8 12 13 10 9 7 8 8 8 9 9 11 9 5 6 6 6 6 5 3 3 4 5 6 7 8 4 1 3 4 3 3 2 2 3 7 7 7
5 6 6 7 7 6 10 12 10 5 6 8 9 9 9 8 13 14 9 8 7 5 2 2 4 6 7 8 6 6 9 8 6 3 6 4 3 2 1 2 4 6 7
5 6 7 7 7 6 7 10 10 2 4 6 7 8 12 9 11 13 8 7 7 7 8 8 4 4 4 3 5 4 6 7 7 5 7 6 5 4 3 1 1 2 3
Wind_Direction
213 225 221 216 226 235 207 208 219 217 221 237 243 243 241 241 242 247 225 195 198 204 210 217 222 227 231 232 232 233 233 233 231 225 222 222 224 226 226 226 228 229 230
214 217 214 208 217 240 254 222 222 224 228 234 243 247 246 250 245 239 238 212 210 212 214 219 222 225 228 230 230 231 231 229 223 218 218 220 223 225 226 227 227 226 227
214 217 227 224 222 226 230 238 253 251 252 250 244 244 244 240 244 240 236 237 230 222 221 221 222 224 226 228 229 229 228 223 218 215 215 218 221 223 225 226 226 225 224
212 217 223 227 222 223 218 228 237 246 253 262 269 272 269 259 246 237 234 232 236 240 225 222 222 222 224 227 229 228 225 221 218 215 214 214 216 220 222 224 225 224 223
209 208 223 227 224 226 225 246 244 244 255 260 267 263 256 256 257 253 243 237 235 232 227 215 215 217 221 224 226 227 225 222 218 215 214 213 214 216 219 221 222 223 223
214 209 217 220 221 226 225 226 239 245 249 250 266 273 279 271 258 249 244 243 237 237 236 226 211 217 220 221 221 223 225 223 218 215 214 214 214 215 217 219 220 220 221
232 219 231 223 218 225 227 223 225 237 241 244 255 267 266 263 256 245 235 231 237 240 241 225 203 207 215 222 221 221 223 224 220 217 215 214 214 214 216 219 220 220 220
238 234 226 233 234 238 235 227 223 227 234 225 228 259 270 275 271 257 220 211 223 236 251 241 206 202 198 205 219 223 225 225 223 219 217 215 214 214 216 219 221 221 220
249 247 244 241 239 239 241 234 228 226 229 226 217 230 250 256 314 299 263 223 220 218 238 282 265 219 207 203 206 217 224 226 225 223 221 218 216 215 216 219 221 223 223
247 246 245 243 244 245 244 243 237 232 227 230 232 235 249 269 275 294 309 353 359 340 319 310 293 263 222 221 213 201 217 225 228 230 229 225 221 219 219 221 223 225 226
242 243 244 244 241 242 244 242 234 217 217 225 227 252 261 253 245 252 278 308 328 311 300 285 291 308 298 258 245 211 213 217 222 228 233 234 231 227 225 225 226 229 230
237 228 230 232 233 230 227 215 198 199 220 225 238 251 260 252 246 229 251 283 289 280 270 260 294 329 327 38 57 36 337 227 226 233 239 241 241 237 233 230 231 234 237
238 219 216 212 212 205 199 188 186 196 200 211 235 252 262 261 264 238 232 258 269 269 265 97 101 67 54 69 72 29 326 230 235 241 244 245 244 241 241 243 245 247 249
248 217 209 204 205 202 202 192 193 200 198 208 233 247 267 276 275 252 241 294 310 322 32 108 100 83 53 61 68 347 215 182 201 216 225 230 236 243 251 258 263 264 265
251 212 204 202 201 196 200 192 204 209 194 201 233 243 240 282 294 300 3 1 348 352 1 38 41 85 57 48 42 328 337 196 202 205 213 224 235 249 263 270 272 270 269
303 224 198 186 183 181 184 194 203 198 190 202 214 191 130 42 359 357 5 351 25 13 352 8 9 21 27 348 25 337 314 214 213 213 219 230 248 266 278 282 281 278 273
16 19 88 157 170 177 176 179 191 172 170 169 149 110 91 70 40 21 12 9 13 19 355 1 25 25 25 357 347 329 310 259 234 215 217 226 251 277 286 288 288 285 280
26 21 15 38 103 153 166 174 155 124 120 105 85 73 62 64 51 38 9 17 6 9 18 25 30 24 29 4 353 346 356 340 311 200 207 222 257 286 295 296 295 295 290
21 21 10 8 18 94 112 105 98 94 88 79 72 67 62 56 42 21 27 21 13 23 36 66 64 42 35 13 8 14 28 9 11 31 205 239 276 295 304 309 308 305 300
16 10 357 355 63 84 88 94 93 87 80 74 70 66 61 54 38 11 40 25 22 20 40 63 62 45 29 12 13 4 19 20 28 15 9 359 318 309 318 319 322 321 319
4 348 9 83 87 83 89 99 100 95 90 90 88 85 77 74 62 51 56 35 30 34 38 47 47 41 23 12 4 347 360 353 43 27 352 5 338 333 330 333 334 333 337
255 182 81 77 75 74 68 76 90 88 85 80 80 98 98 70 65 69 74 64 55 52 40 44 39 32 22 4 348 340 342 346 351 5 348 358 353 354 350 354 351 352 0
186 134 96 91 87 69 67 68 80 87 77 69 58 49 63 50 35 23 61 82 67 60 57 61 48 22 19 354 344 340 337 339 352 347 338 341 355 356 356 11 10 19 30
154 121 107 106 102 80 60 53 60 92 84 76 66 64 67 45 23 10 36 58 62 51 42 60 45 1 2 337 339 340 340 347 48 22 355 345 348 341 349 8 16 29 50
149 135 122 118 107 81 52 43 29 96 96 82 70 55 64 52 23 22 33 34 32 20 344 316 283 289 298 309 322 351 358 360 359 26 11 349 335 316 321 353 11 33 50
164 153 136 131 126 109 64 44 20 11 118 116 109 86 66 59 39 31 30 31 19 349 336 329 296 287 313 346 358 20 12 358 356 359 5 349 344 343 330 331 0 8 41
Height
1534 1536 1537 1538 1539 1539 1539 1538 1538 1539 1539 1539 1540 1540 1541 1541 1540 1540 1540 1539 1538 1538 1537 1536 1536 1535 1535 1535 1535 1536 1536 1537 1539 1540 1542 1543 1544 1545 1546 1547 1549 1550 1552
1532 1533 1533 1534 1534 1535 1536 1536 1535 1535 1535 1535 1536 1536 1536 1536 1536 1536 1536 1535 1534 1533 1533 1532 1531 1530 1530 1531 1531 1531 1532 1533 1534 1536 1537 1539 1540 1541 1542 1543 1544 1546 1548
1527 1528 1529 1529 1529 1530 1531 1531 1531 1531 1531 1532 1531 1531 1531 1531 1531 1531 1531 1530 1529 1528 1528 1527 1527 1526 1526 1526 1526 1527 1527 1528 1529 1531 1532 1534 1536 1537 1538 1539 1540 1542 1543
1522 1523 1523 1524 1524 1525 1525 1525 1526 1526 1526 1526 1526 1527 1527 1526 1526 1526 1525 1524 1524 1523 1522 1522 1522 1522 1522 1522 1522 1523 1523 1524 1525 1526 1528 1529 1531 1533 1534 1535 1536 1538 1539
1517 1517 1517 1518 1519 1519 1519 1519 1520 1520 1520 1520 1520 1520 1520 1520 1520 1520 1519 1519 1518 1518 1517 1517 1517 1517 1517 1517 1518 1518 1519 1520 1521 1522 1524 1525 1527 1528 1530 1531 1533 1534 1535
1513 1512 1512 1512 1512 1513 1513 1513 1513 1514 1514 1515 1515 1514 1513 1513 1514 1513 1513 1513 1513 1513 1512 1511 1510 1510 1511 1512 1513 1514 1515 1516 1517 1518 1519 1521 1522 1524 1526 1527 1529 1530 1531
1508 1507 1507 1507 1506 1506 1506 1506 1506 1506 1508 1509 1509 1508 1507 1506 1506 1506 1505 1506 1506 1507 1507 1506 1504 1504 1505 1506 1508 1509 1510 1512 1513 1514 1515 1516 1518 1519 1521 1523 1524 1526 1527
1501 1501 1500 1500 1500 1500 1500 1499 1499 1499 1500 1502 1503 1503 1502 1500 1500 1501 1499 1499 1500 1501 1502 1502 1501 1500 1500 1501 1502 1504 1505 1507 1508 1509 1511 1512 1513 1515 1516 1518 1520 1521 1523
1493 1493 1493 1492 1492 1493 1492 1491 1492 1492 1493 1494 1496 1497 1497 1496 1496 1496 1495 1496 1496 1496 1497 1497 1497 1496 1496 1495 1496 1498 1500 1502 1503 1505 1506 1508 1509 1510 1511 1513 1515 1516 1518
1486 1486 1485 1485 1485 1485 1484 1484 1484 1484 1485 1486 1487 1489 1491 1492 1494 1493 1492 1492 1491 1491 1491 1491 1492 1491 1491 1491 1491 1492 1495 1497 1498 1500 1502 1503 1504 1505 1507 1508 1509 1511 1512
1478 1478 1478 1477 1477 1477 1476 1476 1476 1476 1477 1478 1480 1481 1484 1487 1489 1489 1488 1487 1487 1487 1486 1486 1487 1487 1487 1487 1488 1488 1489 1492 1494 1495 1496 1498 1499 1500 1501 1502 1503 1505 1506
1471 1470 1470 1470 1470 1470 1469 1469 1470 1470 1471 1472 1474 1476 1479 1482 1484 1484 1484 1483 1483 1482 1482 1482 1483 1483 1484 1484 1484 1484 1485 1487 1488 1490 1491 1492 1493 1494 1495 1496 1497 1498 1499
1465 1465 1465 1465 1464 1464 1465 1465 1466 1467 1468 1469 1471 1473 1477 1479 1480 1481 1481 1480 1480 1480 1480 1480 1480 1481 1481 1481 1481 1482 1482 1482 1484 1485 1485 1486 1487 1487 1488 1489 1490 1491 1492
1460 1460 1460 1460 1461 1462 1462 1463 1464 1465 1466 1468 1470 1472 1474 1476 1477 1478 1478 1478 1478 1479 1478 1479 1479 1479 1479 1479 1479 1479 1479 1479 1479 1479 1480 1480 1481 1481 1482 1482 1483 1484 1484
1455 1455 1456 1457 1458 1459 1460 1461 1462 1464 1465 1467 1469 1470 1472 1474 1475 1476 1476 1477 1478 1478 1478 1478 1479 1478 1478 1478 1477 1476 1476 1475 1475 1475 1475 1475 1475 1475 1475 1475 1476 1476 1476
1450 1451 1452 1453 1455 1457 1458 1460 1461 1462 1464 1466 1468 1469 1471 1472 1474 1475 1475 1476 1477 1477 1477 1477 1478 1477 1476 1476 1475 1474 1473 1472 1471 1471 1471 1471 1470 1469 1469 1469 1468 1468 1468
1447 1448 1449 1450 1452 1454 1456 1458 1459 1462 1463 1465 1466 1468 1469 1471 1472 1473 1474 1475 1475 1475 1475 1475 1475 1475 1474 1473 1472 1471 1470 1469 1468 1467 1466 1466 1465 1465 1464 1463 1462 1461 1460
1445 1446 1447 1448 1450 1452 1455 1457 1459 1461 1462 1464 1465 1467 1468 1470 1471 1472 1473 1474 1474 1474 1474 1474 1474 1473 1473 1472 1471 1469 1468 1466 1464 1463 1462 1461 1461 1460 1459 1458 1456 1454 1453
1445 1446 1446 1448 1449 1452 1455 1457 1458 1460 1462 1464 1465 1466 1468 1469 1471 1472 1473 1473 1473 1473 1473 1473 1474 1474 1473 1472 1471 1469 1466 1464 1462 1460 1458 1457 1456 1455 1454 1452 1451 1448 1446
1447 1446 1447 1449 1450 1453 1455 1457 1459 1461 1463 1464 1466 1468 1469 1470 1471 1472 1473 1473 1473 1473 1474 1474 1474 1474 1473 1472 1470 1468 1466 1463 1461 1458 1456 1454 1453 1451 1450 1448 1446 1444 1441
1449 1449 1450 1452 1453 1455 1458 1459 1461 1463 1465 1467 1468 1470 1471 1472 1472 1473 1473 1474 1474 1474 1474 1475 1475 1474 1473 1472 1470 1469 1467 1464 1461 1459 1456 1453 1451 1448 1446 1444 1442 1440 1437
1453 1454 1454 1455 1457 1458 1461 1463 1464 1465 1467 1469 1471 1472 1473 1474 1474 1475 1475 1475 1476 1476 1476 1476 1476 1475 1474 1473 1471 1469 1467 1464 1462 1460 1456 1453 1450 1447 1444 1442 1440 1437 1434
1456 1457 1458 1459 1460 1462 1464 1466 1467 1468 1469 1471 1472 1474 1475 1475 1476 1476 1477 1478 1478 1478 1478 1478 1477 1476 1475 1474 1471 1469 1467 1465 1463 1460 1457 1454 1451 1447 1444 1441 1439 1436 1433
1458 1459 1460 1461 1463 1465 1467 1468 1470 1471 1472 1474 1475 1475 1476 1477 1478 1479 1479 1480 1480 1480 1479 1479 1478 1477 1476 1475 1473 1470 1468 1466 1463 1461 1458 1455 1452 1449 1445 1442 1439 1436 1434
1459 1461 1462 1463 1465 1467 1469 1470 1472 1473 1474 1476 1476 1477 1478 1479 1480 1480 1480 1480 1480 1480 1480 1480 1479 1478 1477 1475 1473 1470 1468 1465 1464 1461 1459 1456 1453 1450 1447 1443 1440 1437 1435
1459 1461 1463 1465 1467 1469 1471 1472 1474 1475 1476 1477 1478 1478 1479 1480 1481 1481 1481 1481 1481 1481 1480 1480 1479 1479 1477 1476 1474 1472 1469 1467 1464 1462 1460 1458 1455 1451 1448 1446 1442 1440 1437